Location: ???????
(55.4362°N, 38.1183°E)
Time: 16:32:41
(UTC+00:00)

Cosmos 2333 Rocket - Pass Details

Date: 24 October 2021
Orbit: 837 x 865 km, 70.8° (Epoch: 04 December)

Event Time Altitude Azimuth Distance (km) Brightness Sun altitude
Exits shadow 22:07:51 13° 38° (NE) 2,298 4.9 -45.3°
Drops below altitude 10° 22:08:51 10° 47° (NE) 2,509 5.1 -45.2°
Sets 22:12:13 0° 66° (ENE) 3,449 5.8 -45.1°
